Flag for Germany Weather past 2 weeks in Aurich, Lower Saxony, Germany

Now
54 °F

Light rain. Partly cloudy.


Feels Like: 51 °F
Forecast: 47 / 57 °F
Wind: 8 mph from Southwest

Location: Wittmundhaven

Current Time: Oct 21, 2014 at 2:56:31 AM

Latest Report: Oct 21, 2014 at 2:20 AM


Visibility: N/A

Pressure: 29.77 "Hg

Humidity: 94%

Dew point: 52 °F

Location of AurichLocation

Historic Weather in Aurich — Graph

°F

Aurich temperature yesterday

Maximum temperature yesterday: 59 °F (at 12:20 AM)
Minimum temperature yesterday: 54 °F (at 9:20 PM)
Average temperature yesterday: 57 °F

Past Weeks' High & Low Weather Summary

 TemperatureHumidityPressure
High68 °F (Oct 19, 12:20 PM)100% (Oct 11, 3:20 AM)30.07 "Hg (Oct 11, 3:20 AM)
Low45 °F (Oct 11, 7:20 AM)59% (Oct 6, 2:20 PM)29.42 "Hg (Oct 7, 2:20 PM)
Average56 °F87%29.78 "Hg
* Reported Oct 6 1:20 AM — Oct 21 1:20 AM, Aurich, Weather by CustomWeather, © 2014

Note: Actual official high and low records may vary slightly from our data, if they occured in-between our weather recording intervals... More about our weather records

Advertising

Aurich weather history for previous 24 hours

 ConditionsComfort  
Time TempWeatherWind HumidityBarometerVisibility
1:20 AM
Oct 21
54 °FPartly cloudy.7 mph94%29.80 "HgN/A
12:20 AM54 °FPassing clouds.7 mph94%29.80 "HgN/A
11:20 PM
Oct 20
54 °FPassing clouds.9 mph88%29.83 "HgN/A
10:20 PM54 °FLight rain. Passing clouds.10 mph94%29.83 "HgN/A
9:20 PM54 °FLight rain. Passing clouds.10 mph94%29.86 "HgN/A
8:20 PM55 °FLight rain. Partly cloudy.13 mph88%29.86 "HgN/A
7:20 PM57 °FLight rain. Broken clouds.9 mph77%29.86 "HgN/A
6:20 PM57 °FPartly sunny.8 mph82%29.86 "HgN/A
5:20 PM57 °FPartly sunny.10 mph82%29.86 "HgN/A
4:20 PM57 °FBroken clouds.13 mph82%29.89 "HgN/A
3:20 PM57 °FSprinkles. Partly sunny.17 mph82%29.89 "HgN/A
2:20 PM57 °FSprinkles. Broken clouds.17 mph77%29.89 "HgN/A
1:20 PM59 °FBroken clouds.21 mph72%29.89 "HgN/A
12:20 PM59 °FBroken clouds.21 mph77%29.89 "HgN/A
11:20 AM59 °FSprinkles. Scattered clouds.17 mph82%29.89 "HgN/A
10:20 AM59 °FScattered clouds.18 mph82%29.86 "HgN/A
9:20 AM57 °FScattered clouds.14 mph88%29.86 "HgN/A
8:20 AM57 °FSprinkles. Partly cloudy.14 mph88%29.83 "HgN/A
7:20 AM57 °FPassing clouds.15 mph88%29.83 "HgN/A
5:20 AM57 °FPassing clouds.14 mph88%29.83 "HgN/A
4:20 AM57 °FPassing clouds.16 mph88%29.83 "HgN/A
3:20 AM57 °FSprinkles. Partly cloudy.18 mph88%29.83 "HgN/A
2:20 AM59 °FLight rain. Partly cloudy.21 mph82%29.83 "HgN/A
Weather by CustomWeather, © 2014

See weather overviewHow to use our weather pages